Regional Weather Roundup
Issued by NWS Charleston, SC

Current Version | Previous Version | Text Only | Print | Product List | Glossary Off
Versions: 1 2 3 4 5 6 7 8 9 10 11 12 13 14 15 16 17 18 19 20 21 22 23 24 25 26 27 28 29 30 31 32 33 34 35 36 37 38 39 40 41 42 43 44 45 46 47 48 49 50
000 ASUS42 KCHS 261512 RWRCHS REGIONAL WEATHER ROUNDUP NATIONAL WEATHER SERVICE CHARLESTON SC 1100 AM EDT WED APR 26 2017 NOTE: "FAIR" INDICATES FEW OR NO CLOUDS BELOW 12,000 FEET WITH NO SIGNIFICANT WEATHER AND/OR OBSTRUCTIONS TO VISIBILITY. NOT ALL STATIONS ARE QUALITY CONTROLLED. USE DATA WITH CAUTION... ESPECIALLY DEWPOINT OBSERVATIONS. SCZ027-030-031-034>040-042>050-261600- ...SOUTHEAST SOUTH CAROLINA... CITY SKY/WX TMP DP RH WIND PRES REMARKS N CHARLESTON SUNNY 78 60 53 W8 29.87R WATERFRONT PRK N/A 77 63 61 VRB3 29.84R JOHNS ISLAND FAIR 79 63 57 SW6G13 29.87R PINOPOLIS N/A 73 66 78 SW5 29.79R MONCKS CORNER FAIR 77 59 53 SW6 29.87R SUMMERVILLE FAIR 75 61 60 W3 29.88R BEAUFORT MCAS SUNNY 79 61 53 W7 29.88R BEAUFORT ARPT FAIR 77 61 57 W7 29.88R HILTON HEAD IS SUNNY 77 63 61 N6 29.89R WALTERBORO SUNNY 77 59 53 W8 29.88R ALLENDALE FAIR 77 61 57 VRB5 29.86S ...SOUTHERN MIDLANDS AND PEE DEE... CITY SKY/WX TMP DP RH WIND PRES REMARKS GEORGETOWN FAIR 73 66 78 SE6 29.88S KINGSTREE FAIR 75 61 60 S6 29.87R ORANGEBURG SUNNY 76 62 62 SW5 29.86R BARNWELL FAIR 79 63 57 VRB6 29.87S AIKEN FAIR 77 59 53 W7 29.90S MANNING FAIR 73 63 68 SW17G24 29.86S COLUMBIA MOSUNNY 79 60 52 W6 29.85R SUMTER SUNNY 77 62 60 SW7 29.84R FLORENCE SUNNY 73 63 70 S7 29.87R MYRTLE BEACH PTSUNNY 72 63 73 VRB6 29.89R N MYRTLE BEACH PTSUNNY 72 62 71 CALM 29.87R $$ GAZ063-065-086>088-099>101-113>116-118-119-134>141-150-261600- ...SOUTHEAST GEORGIA... CITY SKY/WX TMP DP RH WIND PRES REMARKS SAVANNAH ARPT SUNNY 79 58 48 VRB5 29.88R HUNTER AAF SUNNY 78 64 62 CALM 29.86R FORT STEWART SUNNY 77 58 51 W7 29.86R STATESBORO MOSUNNY 78 59 51 NW6 29.88R SYLVANIA SUNNY N/A N/A N/A W5 29.89R CLAXTON FAIR 77 64 64 W3 29.88R ...CSRA...CENTRAL AND FAR SOUTHEAST GEORGIA... CITY SKY/WX TMP DP RH WIND PRES REMARKS THOMSON SUNNY 76 56 50 NW8 29.92R AUGUSTA-BUSH SUNNY 80 61 52 VRB7 29.85S AUGUSTA-DANIEL SUNNY 78 55 44 VRB7 29.87R SWAINSBORO FAIR 77 59 53 NW7 29.89R VIDALIA SUNNY 77 59 53 NW6 29.88R EASTMAN FAIR 75 50 40 W3 29.90F HAZLEHURST FAIR 76 63 62 N3 29.88R ALMA SUNNY 76 60 57 W3 29.88R WAYCROSS SUNNY 77 64 64 W5 29.88F JESUP FAIR 77 59 53 S3 29.89R BAXLEY FAIR 77 63 61 W3 29.88S BRUNSWICK SUNNY 77 63 61 SW3 29.90R SAINT SIMONS SUNNY 73 60 63 SW5 29.89R $$ SCZ027-028-034-036>038-045-046-048>050-GAZ119-141-261600- ...LAKE AND SUPPLEMENTAL COASTAL OBSERVATIONS... STATION/POSITION TIME TEMP WIND PRES WAVE SWELL AIR SEA DIR/SP/G HT/PER HT/PER/DIR (UTC) (F) (DEG/KT/KT) (MB) (FT/S) (FT/S/D) WINYAH BAY NOT AVBL LAKE MURRAY 1420 71 180/ 5/ 6 1010.5 ACE BASIN NERRS NOT AVBL FORT PULASKI 1442 72 73 210/ 5/ 7 1012.2R SAPELO ISLAND 1400 70 260/ 3 1012.0 $$ ANZ835-935-AMZ111-154-330-350-352-354-370-450-454-472-261600- ...C-MAN AND BUOY OBSERVATIONS... STATION/POSITION TIME TEMP WIND PRES WAVE SWELL AIR SEA DIR/SP/G HT/PER HT/PER/DIR (UTC) (F) (DEG/KT/KT) (MB) (FT/S) (FT/S/D) BUOY 41004 1450 72 73 250/ 12/ 14 1011.4R 4/10 3/110/10 BUOY 41008 1350 70 71 230/ 8/ 8 1011.3 3/10 3/ 90/10 FOLLY BEACH CMAN 1500 77 240/ 6/ 8 1012.1R CAPERS NEARSHORE 1408 72 72 240/ 10/ 14 1010.8R FRIPP NEARSHORE 1408 71 71 250/ 6/ 10 1011.2R STATION/POSITION TIME TEMP WIND PRES WAVE SWELL AIR SEA DIR/SP/G HT/PER HT/PER/DIR (UTC) (F) (DEG/KT/KT) (MB) (FT/S) (FT/S/D) 5E ST. MARYS GA 1430 73 N/A 2/10 2/110/11 FRYING PAN BUOY 1450 69 74 310/ 4/ 6 1011.6R 4/ 9 3/140/ 9 BUOY 41025 1450 67 77 270/ 10/ 12 1010.0R 7/ 9 7/140/ 9 CAPE LOOKOUT NC 1500 66 290/ 10/ 12 1010.5R BUOY 41002 1450 74 75 220/ 17/ 21 1012.2R 8/ 9 3/130/ 9 BUOY 41010 1450 76 76 160/ 16/ 19 1012.5R 5/ 9 3/110/ 9 ST AUGUSTINE FL 1500 74 73 260/ 7/ 8 1013.2R $$

USA.gov is the U.S. government's official web portal to all federal, state and local government web resources and services.